Jackson, TN

6:53 PM CST on December 07, 2016 (GMT -0600)
McKellar-Sipes Regional

Weather History for KMKL - March, 2014

Change the Weather History Date:

Tuesday, March 25, 2014

  Actual Average Record
Temperature  
Mean Temperature 36 °F 54 °F  
Max Temperature 48 °F 66 °F 84 °F (2007)
Min Temperature 23 °F 42 °F 23 °F (2014)
Degree Days  
Heating Degree Days 29 12  
Month to date heating degree days 512 379  
Since 1 July heating degree days 3808 3263  
Cooling Degree Days 0 1  
Month to date cooling degree days 0 1  
Year to date cooling degree days 0 2  
Moisture  
Dew Point 20 °F    
Average Humidity 49    
Maximum Humidity 70    
Minimum Humidity 27    
Precipitation  
Precipitation 0.00 in 0.16 in 1.94 in (1965)
Month to date precipitation 4.14 3.75  
Year to date precipitation 12.30 11.99  
Snow  
Snow 0.00 in 0.00 in 3.90 in (1971)
Month to date snowfall 0.8 0.3  
Since 1 July snowfall 1.3 4.5  
Snow Depth 0.00 in    
Sea Level Pressure  
Sea Level Pressure 30.21 in    
Wind  
Wind Speed 12 mph (NNW)    
Max Wind Speed 28 mph    
Max Gust Speed 33 mph    
Visibility 10 miles    
Events      
T = Trace of Precipitation, MM = Missing Value Source: NWS Daily Summary

Daily Weather History Graph

Daily Weather History Graph

Search for Another Location

Airport or City:

Trip Planner

Search our weather history database for the weather conditions in past years. The results will help you decide how hot, cold, wet, or windy it might be!

Date:

Astronomy

Mar. 25, 2014 Rise Set
Actual Time 6:52 AM CDT 7:11 PM CDT
Civil Twilight 6:26 AM CDT 7:37 PM CDT
Nautical Twilight 5:56 AM CDT 8:07 PM CDT
Astronomical Twilight 5:26 AM CDT 8:37 PM CDT
Moon 3:03 AM CDT (3/25) 1:51 PM CDT (3/25)
Length of Visible Light 13h 10m
Length of Day
12h 19m
Waning Crescent, 32% of the Moon is Illuminated
Mar 25
Waning Crescent
Mar 30
New
Apr 7
First Quarter
Apr 15
Full
Apr 22
Last Quarter

Hourly Weather History & Observations

Time (CDT) Temp. Windchill Dew Point Humidity Pressure Visibility Wind Dir Wind Speed Gust Speed Precip Events Conditions
12:53 AM 39.0 °F 34.8 °F 19.9 °F 46% 30.11 in 10.0 mi North 5.8 mph - N/A   Mostly Cloudy
1:53 AM 39.0 °F 35.7 °F 21.0 °F 49% 30.11 in 10.0 mi North 4.6 mph - N/A   Overcast
2:53 AM 39.9 °F 33.9 °F 19.0 °F 43% 30.10 in 10.0 mi NNE 9.2 mph - N/A   Overcast
3:53 AM 39.0 °F 33.4 °F 19.0 °F 45% 30.11 in 10.0 mi North 8.1 mph - N/A   Overcast
4:53 AM 37.9 °F 32.1 °F 21.0 °F 51% 30.12 in 10.0 mi NNW 8.1 mph - N/A   Overcast
5:53 AM 37.0 °F 31.6 °F 25.0 °F 62% 30.13 in 10.0 mi NW 6.9 mph - N/A   Overcast
6:53 AM 37.0 °F 31.0 °F 26.1 °F 65% 30.16 in 10.0 mi NW 8.1 mph - N/A   Overcast
7:00 AM 37.4 °F 30.8 °F 26.6 °F 65% 30.16 in 10.0 mi NW 9.2 mph - N/A   Overcast
7:09 AM 37.4 °F 31.4 °F 26.6 °F 65% 30.16 in 10.0 mi NW 8.1 mph - N/A   Overcast
7:53 AM 37.9 °F 27.9 °F 28.0 °F 68% 30.19 in 10.0 mi NNW 19.6 mph 25.3 mph N/A   Overcast
8:21 AM 37.4 °F 30.3 °F 28.4 °F 70% 30.20 in 10.0 mi NW 10.4 mph 19.6 mph N/A   Mostly Cloudy
8:53 AM 37.9 °F 27.6 °F 26.1 °F 62% 30.22 in 10.0 mi NNW 20.7 mph - N/A   Mostly Cloudy
9:08 AM 37.4 °F 27.5 °F 26.6 °F 65% 30.21 in 10.0 mi NW 18.4 mph 26.5 mph N/A   Overcast
9:36 AM 39.2 °F 28.5 °F 26.6 °F 61% 30.22 in 10.0 mi NNW 24.2 mph 31.1 mph N/A   Mostly Cloudy
9:53 AM 39.9 °F 30.5 °F 26.1 °F 58% 30.23 in 10.0 mi NNW 19.6 mph 28.8 mph N/A   Mostly Cloudy
10:53 AM 44.1 °F 35.2 °F 21.9 °F 42% 30.25 in 10.0 mi NW 23.0 mph 32.2 mph N/A   Scattered Clouds
11:53 AM 45.0 °F 37.1 °F 17.1 °F 33% 30.25 in 10.0 mi NNW 19.6 mph 31.1 mph N/A   Mostly Cloudy
12:53 PM 44.1 °F 35.0 °F 12.9 °F 28% 30.25 in 10.0 mi North 24.2 mph 31.1 mph N/A   Mostly Cloudy
1:53 PM 46.0 °F 38.3 °F 15.1 °F 29% 30.25 in 10.0 mi NNW 20.7 mph 27.6 mph N/A   Mostly Cloudy
2:53 PM 44.1 °F 35.4 °F 14.0 °F 30% 30.24 in 10.0 mi NW 21.9 mph 31.1 mph N/A   Mostly Cloudy
3:53 PM 45.0 °F 36.9 °F 14.0 °F 29% 30.23 in 10.0 mi North 20.7 mph 26.5 mph N/A   Mostly Cloudy
4:53 PM 43.0 °F 34.8 °F 17.1 °F 35% 30.24 in 10.0 mi North 18.4 mph 21.9 mph N/A   Overcast
5:53 PM 43.0 °F 35.1 °F 16.0 °F 34% 30.25 in 10.0 mi NNW 17.3 mph - N/A   Mostly Cloudy
6:53 PM 41.0 °F 35.2 °F 15.1 °F 35% 30.26 in 10.0 mi NNW 9.2 mph - N/A   Partly Cloudy
7:53 PM 37.0 °F 34.5 °F 15.1 °F 41% 30.26 in 10.0 mi North 3.5 mph - N/A   Clear
8:53 PM 36.0 °F 33.3 °F 15.1 °F 43% 30.27 in 10.0 mi North 3.5 mph - N/A   Clear
9:53 PM 30.0 °F - 17.1 °F 59% 30.28 in 10.0 mi Calm Calm - N/A   Clear
10:53 PM 28.0 °F 24.2 °F 18.0 °F 66% 30.28 in 10.0 mi South 3.5 mph - N/A   Clear
11:53 PM 27.0 °F 23.0 °F 18.0 °F 69% 30.28 in 10.0 mi SSW 3.5 mph - N/A   Clear